Regional Weather Roundup
Issued by NWS Cleveland, OH

Home | Current Version | Previous Version | Text Only | Print | Product List | Glossary Off
Versions: 1 2 3 4 5 6 7 8 9 10 11 12 13 14 15 16 17 18 19 20 21 22 23 24 25 26 27 28 29 30 31 32 33 34 35 36 37 38 39 40 41 42 43 44 45 46 47 48 49 50

000
ASUS41 KCLE 290610
RWRCLE
OHIO REGIONAL WEATHER ROUNDUP
NATIONAL WEATHER SERVICE CLEVELAND, OH
200 AM EDT THU SEP 29 2016

NOTE: "FAIR" INDICATES FEW OR NO CLOUDS BELOW 12,000 FEET WITH NO
SIGNIFICANT WEATHER AND/OR OBSTRUCTIONS TO VISIBILITY.

OHZ001>008-015>018-024>027-034-035-043-044-290700-
   NORTHWEST OHIO

CITY           SKY/WX    TMP DP  RH WIND       PRES   REMARKS
DEFIANCE       CLOUDY    58  54  86 NE8       29.98S
FINDLAY        PTCLDY    56  53  90 NE7       29.96S
TOLEDO EXPRESS LGT RAIN  55  55 100 NE6       29.99F
TOLEDO EXEC    CLOUDY    57  55  93 NE6       29.99F
LIMA           CLOUDY    54  54 100 NE5       29.96R FOG
$$

OHZ009>014-019>023-028>033-038-089-290700-
   NORTHEAST OHIO

CITY           SKY/WX    TMP DP  RH WIND       PRES   REMARKS
CLE-HOPKINS    MOCLDY    58  54  86 S5        30.00F
CLE-LAKEFRONT  CLOUDY    61  57  87 SE3       29.98R
CUY CO. ARPT   NOT AVBL
LORAIN-ELYRIA  LGT RAIN  56  53  90 SW5       29.98F
ASHTABULA      MOCLDY    61  57  87 E6        30.03S
AKRON-CANTON   CLOUDY    56  53  90 S6        30.01S
WOOSTER        CLOUDY    54  53  97 W3        30.00S
MANSFIELD      CLOUDY    54  53  97 CALM      29.97S
YOUNGSTOWN     CLOUDY    63  57  81 E10       30.01R
$$

OHZ042-051>053-060>062-070>072-077>081-290700-
  SOUTHWEST OHIO

CITY           SKY/WX    TMP DP  RH WIND       PRES   REMARKS
CINC-COVINGTON FOG       51  51 100 W3        29.96F VSB 1/4
CINC-LUNKEN    MOCLDY    50  50 100 SW5       29.97F
HAMILTON       PTCLDY    50  49  96 CALM      29.97S FOG
DAYTON         FOG       50  49  96 CALM      29.96R VSB 1/2
WRIGHT-PAT AFB CLOUDY    54  54 100 S3        29.95R
DAYTON GENERAL PTCLDY    51  49  92 SW3       29.95S
WILMINGTON     FOG       52  52 100 SE5       29.96R VSB 1/4
$$

OHZ036-037-039>041-045>050-054>059-063>069-073>076-082>088-290700-
  CENTRAL AND SOUTHEAST OHIO

CITY           SKY/WX    TMP DP  RH WIND       PRES   REMARKS
COLUMBUS       CLOUDY    57  57 100 SE7       29.96R
OSU AIRPORT    CLOUDY    57  56  96 SE5       29.96R
BOLTON FIELD   CLOUDY    55  55 100 S5        29.97R
RICKENBACK AFB CLOUDY    55  55 100 SE5       29.96R
NEWARK         CLOUDY    56  54  93 SE6       29.97S
MARION         MOCLDY    55  51  86 SE6       29.97F
LANCASTER      CLOUDY    57  56  96 SE8       29.97S
ZANESVILLE     LGT RAIN  56  54  93 E6        29.97R
NEW PHILLY     CLOUDY    56  56 100 SE3       30.00F
$$




USA.gov is the U.S. government's official web portal to all federal, state and local government web resources and services.